x

Southeast Bering Sea -205nm Wnw Of Dutch Harbor, Ak (46073) Wave Buoy

6:50 - Tue 21st Feb 2017 All times are UTC.

  • Sig Wave height 17.4ft
  • Swell Direction
  • Peak Period 10s
  • Average Period 9s
  • Wind
    9mph, 16mph gusts
  • Luft Temp 35°f
  • Sea Pressure 990.5mb

More Historic Weather Station data

Upgrade to MSW Pro to gain access to the past 30 days of data for over 8000 Wavebouys and Weather Stations around the globe.

Join Pro

Comparision Forecast

View Surf forecast
   
Di 02/21 6:50 17.5ft 10s 9s 9 16 mph 990.5mb 35f
5:50 16ft 10s 8s 11 20 mph 991mb 35f
4:50 16ft 10s 8s 11 22 mph 991.5mb -
3:50 16ft 11s 8s 11 22 mph 992mb -
2:50 19ft 11s 8s 11 25 mph 992.5mb -
1:50 15.5ft 11s 8s 13 29 mph 993.3mb -
12:50 17ft 10s 8s 13 31 mph 994.5mb -
Mo 02/20 11:50 17ft 10s 8s 13 31 mph 995.7mb -
10:50 17.5ft 9s 8s 16 34 mph 997mb -
9:50 19.5ft 9s 8s 18 36 mph 998mb -
8:50 17.5ft 10s 8s 20 36 mph 999.6mb -
7:50 15ft 8s 7s 13 34 mph 1000.9mb -
6:50 14ft 8s 7s 13 38 mph 1002mb -
5:50 13ft 8s 7s 13 36 mph 1002.8mb -
4:50 11ft 8s 6s 13 29 mph 1004.1mb -
3:50 11ft 8s 6s 13 34 mph 1005mb -
2:50 10ft 8s 6s 16 31 mph 1006.2mb -
1:50 10ft 8s 6s 13 31 mph 1007.5mb -
12:50 8.5ft 7s 6s 16 29 mph 1009.3mb -
11:50 7ft 7s 5s 13 29 mph 1010.3mb -
10:50 7ft 6s 5s 11 29 mph 1011.7mb -
9:50 6ft 6s 5s 11 25 mph 1013.5mb -
8:50 5ft 5s 5s 11 25 mph 1013.8mb -
7:50 4.5ft 5s 4s 11 22 mph 1015mb -
6:50 3.5ft 4s 4s 9 18 mph 1016mb -
5:50 3.5ft 5s 4s 9 20 mph 1016.4mb -
4:50 3ft 4s 4s 9 18 mph 1017.3mb -
3:50 2.5ft 6s 4s 7 13 mph 1017.9mb -
2:50 3ft 6s 4s 4 11 mph 1018.9mb -
1:50 2.5ft 5s 4s 4 9 mph 1018.8mb -
12:50 2.5ft 6s 4s 7 18 mph 1018.8mb -
So 02/19 11:50 2.5ft 5s 4s 4 9 mph 1019mb -
10:50 2.5ft 6s 5s 7 13 mph 1019.2mb -
9:50 3ft 6s 5s 4 11 mph 1019.1mb -
8:50 3ft 6s 5s 2 9 mph 1019.1mb -
7:50 3.5ft 6s 5s 4 9 mph 1018.4mb -
6:50 3.5ft 6s 5s 2 7 mph 1018.4mb -
5:50 3.5ft 6s 5s 2 7 mph 1018.3mb -
4:50 4ft 6s 5s 2 9 mph 1018.3mb -
3:50 3.5ft 6s 5s  -  4 mph 1018mb -
2:50 4ft 6s 5s 4 11 mph 1018mb -
1:50 4ft 6s 5s 2 7 mph 1018mb -
12:50 4.5ft 6s 5s 2 7 mph 1017.9mb -
11:50 4.5ft 7s 5s 4 13 mph 1017.7mb -
10:50 4.5ft 6s 5s 4 7 mph 1017.5mb -
9:50 4.5ft 6s 5s 4 11 mph 1017.5mb -
8:50 5ft 7s 5s 4 9 mph 1017.1mb -
7:50 5ft 6s 5s 4 13 mph 1016.8mb -
6:50 5ft 7s 5s 7 16 mph 1016.3mb -
5:50 6ft 7s 5s 7 13 mph 1016.4mb -
4:50 5ft 7s 5s 4 13 mph 1016mb -
3:50 5ft 7s 5s 4 16 mph 1015.7mb -
2:50 5.5ft 7s 5s 4 11 mph 1015.3mb -
1:50 6ft 7s 5s 4 11 mph 1014.8mb -
12:50 6.5ft 7s 6s 4 9 mph 1014.6mb -
Sa 02/18 11:50 6ft 8s 5s 7 16 mph 1014.3mb -
10:50 6.5ft 7s 5s 7 18 mph 1014.4mb -
9:50 7ft 7s 6s 7 13 mph 1014.2mb -
8:50 7ft 8s 6s 9 20 mph 1013.8mb -
7:50 7ft 8s 6s 7 18 mph 1013.3mb -
6:50 7.5ft 8s 6s 7 16 mph 1013mb -
5:50 7.5ft 8s 6s 9 16 mph 1012.4mb -
4:50 8ft 8s 6s 7 16 mph 1011.9mb -
3:50 7ft 7s 6s 9 20 mph 1011.5mb -
2:50 8ft 8s 6s 9 16 mph 1011.1mb -
1:50 8ft 8s 6s 11 22 mph 1011.1mb -
12:50 8ft 7s 6s 9 20 mph 1010.6mb -
11:50 8.5ft 8s 6s 9 18 mph 1010.1mb -
10:50 8ft 8s 6s 9 16 mph 1009.7mb -
9:50 8.5ft 8s 6s 9 18 mph 1009.3mb -
8:50 8ft 8s 6s 11 18 mph 1008.7mb -
7:50 9ft 8s 6s 9 18 mph 1008.4mb -
6:50 10ft 8s 6s 11 25 mph 1007.8mb -
5:50 9.5ft 8s 6s 11 22 mph 1007.2mb -
4:50 9ft 8s 6s 11 20 mph 1006.3mb -
3:50 9ft 8s 6s 11 22 mph 1005.8mb -
2:50 10ft 9s 6s 11 27 mph 1005mb -
1:50 8.5ft 9s 6s 11 25 mph 1004.5mb -
12:50 9ft 9s 6s 11 22 mph 1004.1mb -
Fr 02/17 11:50 8.5ft 9s 6s 11 20 mph 1003.9mb -
10:50 9.5ft 8s 6s 11 22 mph 1003.4mb -
9:50 9ft 9s 6s 11 20 mph 1002.9mb -
8:50 9ft 8s 6s 11 22 mph 1002.5mb -
7:50 8.5ft 9s 6s 11 20 mph 1001.8mb -
6:50 9.5ft 10s 7s 11 20 mph 1001.4mb -
5:50 10ft 9s 7s 9 18 mph 1000.7mb -
4:50 9ft 9s 7s 9 18 mph 1000.2mb -
3:50 9.5ft 9s 7s 9 20 mph 999.7mb -
2:50 9ft 10s 7s 9 18 mph 999.2mb -
1:50 9.5ft 10s 7s 9 16 mph 999.3mb -
12:50 8.5ft 10s 6s 4 16 mph 999mb -
11:50 9ft 10s 7s 9 22 mph 998.6mb -
10:50 9.5ft 10s 7s 7 18 mph 998mb -
9:50 10ft 10s 7s 7 16 mph 997.7mb -
8:50 9.5ft 10s 7s 9 18 mph 997.4mb -
7:50 10ft 10s 7s 7 16 mph 997mb -